Weather in Heraklion

Greece     35°20′41″N   25°09′02″E
temp.,
°C
wind,
m/s
gust,
m/s
humid.,
%
clouds,
%
prec.,
mm/h
press.,
hPa
HPBL,
m
18 april, sun
sun1800:00+23s4529100 0.0 101255
03:00+22ssw3330100 0.0 101235
06:00+16e1264100 0.0 101428
09:00+23se244337 0.0 1014185
12:00+28ne333291 0.0 1013802
15:00+21n5861100 0.0 1015546
18:00+21nne355299 0.0 1014408
21:00+18n3463100 0.0 101582
19 april, mon
mon1900:00+17n1268100 0.0 101538
03:00+17nne1164100 0.0 101317
06:00+17wsw1165100 0.0 101214
09:00+17n237598 0.0 1013230
12:00+18nnw547524 0.0 1013431
15:00+17nnw5571100 0.0 1013603
18:00+15nnw7875100 0.0 1013563
21:00+13nnw3774100 0.0 1014344
20 april, tue
tue2000:00+11nnw2678100 0.0 1016242
03:00+10nne13800 0.0 1015136
06:00+9se13790 0.0 1015107
09:00+13s12480 0.0 1016312
12:00+17nnw44440 0.0 1016831
15:00+16nnw55600 0.0 1017751
18:00+15n45664 0.0 1017644
21:00+12n23811 0.0 1018100
21 april, wed
wed2100:00+11s11821 0.0 101930
03:00+10nne01823 0.0 101826
06:00+10sse01800 0.0 101831
09:00+14n11552 0.0 1019348
12:00+17nnw33473 0.0 1020828
15:00+17nnw43587 0.0 1020700
18:00+15nnw346724 0.0 1020436
21:00+12ne01785 0.0 102117
22 april, thu
thu2200:00+12sse116921 0.0 102120
03:00+12s11675 0.0 102020
06:00+12ese11532 0.0 102020
09:00+16nne11425 0.0 1021241
12:00+19n223428 0.0 1022758
15:00+21nnw223823 0.0 1021899
18:00+18n32441 0.0 1020396
21:00+15ssw11532 0.0 102111